Hourly Weather Kosincy

Today, 26 October, Monday

Time Temperature Precipitation Wind Pressure Humidity
00:00 -1°C° 0 mm 1 mps 741 mmHg 89%
01:00 -1°C° 0 mm 1 mps 741 mmHg 91%
02:00 -1°C° 0 mm 1 mps 741 mmHg 92%
03:00 -3°C° 0 mm 2 mps 741 mmHg 93%
04:00 -3°C° 0 mm 2 mps 741 mmHg 94%
05:00 -3°C° 0.1 mm 2 mps 741 mmHg 94%
06:00 -3°C° 0.1 mm 2 mps 742 mmHg 95%
07:00 -3°C° 0.1 mm 2 mps 742 mmHg 95%
08:00 -3°C° 0.2 mm 2 mps 742 mmHg 93%
09:00 -2°C° 0.2 mm 3 mps 742 mmHg 92%
10:00 -2°C° 0.2 mm 3 mps 743 mmHg 90%
11:00 -3°C° 0.1 mm 4 mps 743 mmHg 88%
12:00 -3°C° 0.1 mm 4 mps 744 mmHg 86%
13:00 -3°C° 0.1 mm 4 mps 744 mmHg 85%
14:00 -3°C° 0 mm 4 mps 745 mmHg 84%
15:00 -4°C° 0 mm 5 mps 746 mmHg 83%
16:00 -5°C° 0 mm 5 mps 749 mmHg 76%
17:00 -6°C° 0 mm 5 mps 749 mmHg 77%
18:00 -5°C° 0 mm 4 mps 750 mmHg 78%
19:00 -5°C° 0 mm 4 mps 751 mmHg 79%
20:00 -8°C° 0 mm 4 mps 753 mmHg 86%
21:00 -7°C° 0 mm 4 mps 753 mmHg 86%
22:00 -7°C° 0 mm 4 mps 752 mmHg 85%
23:00 -7°C° 0 mm 4 mps 753 mmHg 84%

Tomorrow, 27 October, Tuesday

Time Temperature Precipitation Wind Pressure Humidity
00:00 -8°C° 0 mm 4 mps 753 mmHg 85%
01:00 -7°C° 0 mm 3 mps 753 mmHg 86%
02:00 -5°C° 0 mm 4 mps 752 mmHg 83%
03:00 -7°C° 0 mm 4 mps 753 mmHg 84%
04:00 -7°C° 0 mm 4 mps 754 mmHg 86%
05:00 -7°C° 0 mm 3 mps 754 mmHg 87%
06:00 -7°C° 0 mm 3 mps 755 mmHg 88%
07:00 -7°C° 0 mm 2 mps 756 mmHg 90%
08:00 -6°C° 0 mm 2 mps 756 mmHg 87%
09:00 -6°C° 0 mm 2 mps 757 mmHg 84%
10:00 -5°C° 0 mm 2 mps 757 mmHg 81%
11:00 -3°C° 0 mm 1 mps 757 mmHg 78%
12:00 -2°C° 0 mm 1 mps 757 mmHg 75%
13:00 -1°C° 0 mm 1 mps 757 mmHg 71%
14:00 -1°C° 0 mm 1 mps 757 mmHg 74%
15:00 -1°C° 0 mm 1 mps 757 mmHg 76%
16:00 -2°C° 0 mm 1 mps 757 mmHg 78%
17:00 -1°C° 0 mm 1 mps 757 mmHg 78%
18:00 -1°C° 0 mm 1 mps 757 mmHg 78%
19:00 -3°C° 0 mm 2 mps 757 mmHg 78%
20:00 -3°C° 0.1 mm 2 mps 757 mmHg 82%
21:00 -3°C° 0.1 mm 2 mps 756 mmHg 86%
22:00 -4°C° 0.1 mm 3 mps 756 mmHg 90%
23:00 -4°C° 0.2 mm 3 mps 756 mmHg 88%

Day after tomorrow, 28 October, Wednesday

Time Temperature Precipitation Wind Pressure Humidity
00:00 -2°C° 0.2 mm 3 mps 755 mmHg 86%
01:00 -3°C° 0.2 mm 4 mps 755 mmHg 84%
02:00 -4°C° 0 mm 0 mps 759 mmHg 87%
03:00 -4°C° 0 mm 0 mps 759 mmHg 86%
04:00 -3°C° 0 mm 1 mps 759 mmHg 85%
05:00 -2°C° 0 mm 1 mps 759 mmHg 85%
06:00 -2°C° 0 mm 1 mps 759 mmHg 86%
07:00 -4°C° 0 mm 2 mps 759 mmHg 86%
08:00 -4°C° 0 mm 2 mps 759 mmHg 84%
09:00 -3°C° 0 mm 2 mps 759 mmHg 82%
10:00 -3°C° 0 mm 2 mps 759 mmHg 80%
11:00 -2°C° 0 mm 3 mps 759 mmHg 78%
12:00 -2°C° 0 mm 3 mps 759 mmHg 77%
13:00 -1°C° 0 mm 3 mps 759 mmHg 75%
14:00 -1°C° 0 mm 3 mps 759 mmHg 76%
15:00 -1°C° 0 mm 3 mps 759 mmHg 78%
16:00 -2°C° 0 mm 4 mps 758 mmHg 79%
17:00 -2°C° 0 mm 4 mps 758 mmHg 80%
18:00 -2°C° 0 mm 4 mps 758 mmHg 81%
19:00 -1°C° 0 mm 3 mps 758 mmHg 81%
20:00 -1°C° 0 mm 3 mps 757 mmHg 82%
21:00 -2°C° 0 mm 4 mps 757 mmHg 82%
22:00 -2°C° 0 mm 4 mps 757 mmHg 82%
23:00 -2°C° 0 mm 4 mps 756 mmHg 82%

29 October, Thursday

Time Temperature Precipitation Wind Pressure Humidity
00:00 -2°C° 0 mm 4 mps 756 mmHg 81%
01:00 -2°C° 0 mm 4 mps 756 mmHg 81%
02:00 -2°C° 0 mm 4 mps 755 mmHg 82%
03:00 -2°C° 0 mm 4 mps 755 mmHg 83%
04:00 -2°C° 0 mm 4 mps 755 mmHg 84%
05:00 -2°C° 0 mm 4 mps 754 mmHg 86%
06:00 -1°C° 0 mm 4 mps 754 mmHg 87%
07:00 -1°C° 0 mm 4 mps 754 mmHg 89%
08:00 -1°C° 0 mm 4 mps 754 mmHg 90%
09:00 0°C° 0 mm 4 mps 754 mmHg 92%
10:00 0°C° 0 mm 4 mps 754 mmHg 93%
11:00 +1°C° 0 mm 4 mps 755 mmHg 92%
12:00 +3°C° 0 mm 4 mps 755 mmHg 92%
13:00 +3°C° 0 mm 3 mps 755 mmHg 91%
14:00 +3°C° 0 mm 3 mps 755 mmHg 92%
15:00 +2°C° 0 mm 3 mps 755 mmHg 94%
16:00 +3°C° 0 mm 2 mps 756 mmHg 95%
17:00 +3°C° 0 mm 2 mps 756 mmHg 95%
18:00 +3°C° 0 mm 2 mps 756 mmHg 96%
19:00 +2°C° 0 mm 2 mps 756 mmHg 97%
20:00 +2°C° 0 mm 2 mps 756 mmHg 96%
21:00 +1°C° 0 mm 3 mps 756 mmHg 95%
22:00 +1°C° 0 mm 3 mps 756 mmHg 95%
23:00 0°C° 0 mm 3 mps 755 mmHg 93%

30 October, Friday

Time Temperature Precipitation Wind Pressure Humidity
00:00 0°C° 0 mm 3 mps 755 mmHg 92%
01:00 0°C° 0 mm 3 mps 755 mmHg 90%
02:00 -1°C° 0 mm 3 mps 755 mmHg 88%
03:00 -1°C° 0 mm 3 mps 755 mmHg 85%
04:00 -2°C° 0 mm 3 mps 755 mmHg 83%
05:00 -2°C° 0 mm 3 mps 755 mmHg 83%
06:00 -2°C° 0 mm 3 mps 754 mmHg 83%
07:00 -2°C° 0 mm 3 mps 754 mmHg 83%
08:00 -2°C° 0 mm 3 mps 754 mmHg 81%
09:00 -1°C° 0 mm 3 mps 754 mmHg 79%
10:00 -1°C° 0 mm 4 mps 754 mmHg 77%
11:00 -1°C° 0 mm 4 mps 754 mmHg 75%
12:00 0°C° 0 mm 4 mps 754 mmHg 73%
13:00 +1°C° 0 mm 4 mps 754 mmHg 71%
14:00 0°C° 0 mm 4 mps 754 mmHg 73%
15:00 0°C° 0 mm 4 mps 754 mmHg 75%
16:00 -1°C° 0 mm 4 mps 754 mmHg 76%
17:00 -1°C° 0 mm 4 mps 754 mmHg 77%
18:00 -1°C° 0 mm 4 mps 753 mmHg 79%
19:00 -2°C° 0 mm 4 mps 753 mmHg 80%
20:00 -1°C° 0 mm 3 mps 753 mmHg 80%
21:00 -1°C° 0 mm 3 mps 753 mmHg 81%
22:00 -1°C° 0 mm 3 mps 753 mmHg 82%
23:00 -1°C° 0 mm 3 mps 752 mmHg 82%

31 October, Saturday

Time Temperature Precipitation Wind Pressure Humidity
00:00 -2°C° 0 mm 4 mps 752 mmHg 83%
01:00 -2°C° 0 mm 4 mps 752 mmHg 84%
02:00 -2°C° 0 mm 4 mps 751 mmHg 84%
03:00 -1°C° 0 mm 4 mps 751 mmHg 84%
04:00 -1°C° 0 mm 4 mps 750 mmHg 84%
05:00 -1°C° 0 mm 4 mps 750 mmHg 85%
06:00 -1°C° 0 mm 4 mps 750 mmHg 86%
07:00 -1°C° 0 mm 4 mps 749 mmHg 87%
08:00 -1°C° 0 mm 4 mps 749 mmHg 86%
09:00 0°C° 0 mm 4 mps 749 mmHg 85%
10:00 0°C° 0 mm 4 mps 748 mmHg 84%
Show more